Location: *
(45.9500°N, 9.0833°E)
Time: 20:21:09
(UTC+00:00)

Vanguard 2 Rocket - Pass Details

Date: 21 June 2021
Orbit: 555 x 3325 km, 32.9° (Epoch: 30 July)

Event Time Altitude Azimuth Distance (km) Brightness Sun altitude
Rises 22:19:15 0° 270° (W) 7,099 11.7 -19.0°
Reaches altitude 10° 22:24:52 10° 264° (W) 5,809 11.1 -19.3°
Maximum altitude 22:39:13 37° 206° (SSW) 3,022 9.1 -19.8°
Enters shadow 22:44:00 28° 166° (SSE) 3,026 8.9 -20.0°
Drops below altitude 10° 22:48:22 10° 143° (SE) 3,710 - -20.1°
Sets 22:51:07 0° 135° (SE) 4,366 - -20.2°
